星链-5185 (STARLINK-5185 )

导读 | 星芒AI

STARLINK-5185 是 SpaceX Starlink 项目中的一颗低轨通信卫星,属于该星座的第五组发射批次。该卫星旨在为全球用户提供高速互联网服务,尤其关注网络覆盖不足的地区。它运行在约 550 公里的近地轨道,具备先进的相控阵天线和激光通信能力,以提升数据传输效率和系统稳定性。作为 Starlink 卫星群的一部分,STARLINK-5185 有助于构建一个低延迟、高带宽的全球宽带网络。

基本信息
目录编号:
54100
目录名称:
STARLINK-5185
国际标识:
2022-136BB
轨道中心:
EARTH
卫星名称:
星链-5185
卫星全名:
星链-5185 (STARLINK-5185 )
卫星状态:
在轨 (已飞行1158 天)
发射日期:
2022-10-20 UTC
国别 :
美国 (US)
星等 :
--
轨道信息
数据来源 国际轨道数据
星历时间: 2025-12-21T10:22:51+0800
9小时前
查看轨道信息
半长轴: 6917.871km
偏心率: 0.0002009
轨道倾角: 53.218°
近地点辐角 70.118°
升交点赤经 326.639°
平近点角 290.003°
近地点: 538.344km
远地点: 541.124km
周期: 95.437分钟
每日圈数: 15.088433
详细信息
固有亮度:
5
最大亮度:
2.5
卫星平台:
Starlink v1.5
覆盖范围:
全球
运营商:
太空探索技术公司
运营商所在国:
美国
制造商(研发单位):
太空探索技术公司
制造商所在国:
美国
使用方式:
暂无
卫星简介
星链(Starlink)计划是由太空探索技术公司(SpaceX)提出的一个巨型低轨卫星互联网星座项目,计划在2019年至2024年间在太空搭建由约1.2万颗卫星组成的“星链”网络,其中1584颗将部署在地球上空550千米处的近地轨道,并从2020年开始工作。该卫星仍在工作。
2D轨道图
3D轨道图
轨道高度分析图
轨道倾角分析图
轨道综合分析图
查看轨道综合分析图